Regional Weather Roundup
Issued by NWS Newport/Morehead, NC

Home | Current Version | Previous Version | Text Only | Print | Product List | Glossary On
Versions: 1 2 3 4 5 6 7 8 9 10 11 12 13 14 15 16 17 18 19 20 21 22 23 24 25 26 27 28 29 30 31 32 33 34 35 36 37 38 39 40 41 42 43 44 45 46 47 48 49 50
000
ASUS42 KMHX 301525
RWRMHX
WEATHER ROUNDUP FOR EASTERN NORTH CAROLINA
NATIONAL WEATHER SERVICE NEWPORT/MOREHEAD CITY NC
1100 AM EDT SAT MAY 30 2015

NOTE: "FAIR" INDICATES FEW OR NO CLOUDS BELOW 12,000 FEET
WITH NO SIGNIFICANT WEATHER AND/OR OBSTRUCTIONS TO VISIBILITY

NCZ015>017-031-032-045>047-102-103-301600-
NORTH COAST

CITY           SKY/WX    TMP DP  RH WIND       PRES   REMARKS
EDENTON          N/A     80  66  61 S3        30.23F
ELIZABETH CITY MOSUNNY   78  66  66 S6        30.23F
KITTY HAWK     CLOUDY    77  65  68 E7        30.23S
MANTEO         PTSUNNY   78  65  63 S5        30.24S

$$

NCZ045>047-081-094-103-104-301600-
CENTRAL COAST

CITY           SKY/WX    TMP DP  RH WIND       PRES   REMARKS
FRISCO         MOSUNNY   80  63  55 SE6       30.24S
SWANQUARTER      N/A     79 N/A N/A SW6       30.21S

$$

NCZ095-097-098-100-101-301600-
SOUTHERN COAST

CITY           SKY/WX    TMP DP  RH WIND       PRES   REMARKS
BEAUFORT       SUNNY     80  66  62 E8        30.23R
CEDAR ISLAND     N/A     79 N/A N/A E8        30.27S
JACKSONVILLE   SUNNY     80  63  55 CALM      30.22S
PINEY ISLAND   MOSUNNY  N/A N/A N/A E9        30.23S
WILMINGTON     CLOUDY    76  68  76 N7        30.23R


$$

NCZ011>013-027>030-043-044-078>080-089-090>093-098-301600-
COASTAL PLAIN

CITY           SKY/WX    TMP DP  RH WIND       PRES   REMARKS
AHOSKIE        SUNNY     77  65  65 SE6       30.23S
CLINTON        SUNNY     82  63  52 CALM      30.22F
ELIZABETHTOWN  PTSUNNY   80  66  62 CALM      30.22S
GOLDSBORO      SUNNY     81  67  61 CALM      30.20F
GREENVILLE     MOSUNNY   81  66  61 S3        30.24S
HAVELOCK       PTSUNNY   83  64  52 NE8       30.23F
KENANSVILLE    MOSUNNY   79  62  57 CALM      30.23F
KINSTON        SUNNY     81  64  57 CALM      30.23F
NEW BERN       MOSUNNY   81  62  52 VRB3      30.24S
RICHLANDS      MOSUNNY   82  61  47 S3        30.22F
ROCKY MOUNT    PTSUNNY   79  65  62 SW3       30.23S
WASHINGTON     SUNNY     80  62  54 SE6       30.23F
WHITEVILLE     MOSUNNY   80  65  59 CALM      30.21F

$$

AMZ130-135-150-152-154-156-158-170-250-252-270-ANZ085-086-088-633-658-670-301600-
MARINE OBSERVATIONS

STATION/POSITION TIME  TEMP    WIND        PRES    WAVE   SWELL
                       AIR SEA DIR/SP/G            HT/PER HT/PER
                 (UTC) (F)     (DEG/KT/KT) (MB)    (FT/S) (FT/S)
CHESAPEAKE LIGHT 1500   72     160/  6/  6 1024.7
64 E VA BEACH    1450   71 68   80/  4/  4 1024.1    4/ 9   3/ 9
DUCK             1500   79 55   90/  4/  4 1023.1
2 E DUCK         1411      66                N/A     3/ 9
OREGON INLET     1500   78 76  210/  3/  4 1024.1
13E OREGON INLT  1500      77                N/A     4/ 9   2/11
HATTERAS CG      1500   78 77  110/  5/  7 1023.5
DIAMOND BUOY     1450   76 80  120/  6/ 10 1023.9    3/ 9   3/ 9
CAPE LOOKOUT     1500   76      70/  7/  8 1023.4
BEAUFORT LAB     1500   78 76  120/  9/ 11 1022.8
27 SE WRIGHTSVLE 1400      76   40/  2/  4   N/A
5 SE WRIGHTSVLE  1408   76 77  360/  2/  6 1023.4
225 S CAPE HAT   1450   75 75   80/ 12/ 12 1022.0    6/ 8   5/ 8
41 SE CHARLESTON 1450   78 79   90/ 14/ 16 1021.3    5/ 9   3/ 9

$$


USA.gov is the U.S. government's official web portal to all federal, state and local government web resources and services.